{"data":{"norad_id":62907,"epoch":"2026-09-21T00:50:03.594048Z","epoch_age_seconds":122038,"freshness":"FRESH","line1":"1 62907U 25027A   26264.03476382  .00135951  00000+0  10456-2 0  9994","line2":"2 62907  42.9990 250.2972 0002329 279.6484  80.4120 15.70841757 93914","mean_motion":15.70841757,"eccentricity":0.0002329,"inclination_deg":42.999,"raan_deg":250.2972,"arg_perigee_deg":279.6484,"mean_anomaly_deg":80.412,"bstar":0.0010456,"rev_number":9391,"period_min":91.67059594533,"perigee_km":354.92154510086,"apogee_km":358.05853437597,"semimajor_km":6734.6270397384,"source":"CELESTRAK","updated_at":"2026-09-22T09:00:49.706268Z"}}